This is the latest recevied weather packets stored in our database for station/object K4HOG. If no packets are shown the sender has not sent any weather packets the latest 10 day(s).
| Time | Temp. | Humidity | Pressure | Rain* | Wind** | Luminosity | Snow |
|---|---|---|---|---|---|---|---|
| 1777593543 | 25.56° C | 74% | 1010.1 hPa | 0 mm | - | 3 W/m² | - |
| 1777593243 | 25.56° C | 73% | 1010.1 hPa | 0 mm | - | 5 W/m² | - |
| 1777592943 | 26.11° C | 72% | 1010 hPa | 0 mm | - | 7 W/m² | - |
| 1777592637 | 26.11° C | 72% | 1010.1 hPa | 0 mm | - | 10 W/m² | - |
| 1777592334 | 26.11° C | 72% | 1009.9 hPa | 0 mm | - | 12 W/m² | - |
| 1777592029 | 26.67° C | 71% | 1010 hPa | 0 mm | - | 15 W/m² | - |
| 1777591727 | 26.67° C | 71% | 1010.1 hPa | 0 mm | - | 17 W/m² | - |
| 1777591422 | 26.67° C | 70% | 1010.1 hPa | 0 mm | - | 25 W/m² | - |
| 1777591118 | 26.67° C | 69% | 1009.9 hPa | 0 mm | - | 38 W/m² | - |
| 1777590813 | 26.67° C | 69% | 1009.9 hPa | 0 mm | - | 40 W/m² | - |
| 1777590510 | 26.67° C | 68% | 1009.6 hPa | 0 mm | - | 40 W/m² | - |
| 1777590206 | 27.22° C | 67% | 1009.5 hPa | 0 mm | - | 39 W/m² | - |
| 1777589904 | 27.22° C | 66% | 1009.6 hPa | 0 mm | - | 50 W/m² | - |
| 1777589599 | 27.78° C | 65% | 1009.6 hPa | 0 mm | - | 66 W/m² | - |
| 1777589297 | 27.78° C | 66% | 1009.5 hPa | 0 mm | - | 106 W/m² | - |
| 1777588995 | 27.22° C | 66% | 1009.3 hPa | 0 mm | - | 118 W/m² | - |
| 1777588690 | 27.22° C | 67% | 1009.6 hPa | 0 mm | - | 91 W/m² | - |
| 1777588386 | 27.78° C | 66% | 1009.6 hPa | 0 mm | - | 83 W/m² | - |
| 1777588082 | 27.78° C | 65% | 1009.2 hPa | 0 mm | - | 75 W/m² | - |
| 1777587778 | 28.33° C | 64% | 1009.3 hPa | 0 mm | - | 155 W/m² | - |
| 1777587477 | 28.33° C | 64% | 1009.5 hPa | 0 mm | - | 188 W/m² | - |
| 1777587174 | 28.33° C | 64% | 1009.5 hPa | 0 mm | - | 164 W/m² | - |
| 1777586869 | 28.89° C | 63% | 1009.7 hPa | 0 mm | - | 173 W/m² | - |
| 1777586565 | 28.89° C | 64% | 1009.5 hPa | 0 mm | - | 289 W/m² | - |
| 1777586261 | 28.33° C | 64% | 1009.8 hPa | 0 mm | - | 312 W/m² | - |
* Rain latest hour (hover to see other rain measurements)
** Current wind speed in m/s (hover to see current wind gust speed)